IBE0705 LEIB-LEMD

Flight info

Callsign IBE0705
Flight time 0h 54m
Altitude 29000
Route XOSTA M134 NINOT/N0466F310 M134 VLC N733 PRADO
Aircraft A359/H-SDE2E3GHIJ3J4J5LM1ORWXY/LB1D1

Departure

Time 2026-05-07 16:05
Airport Ibiza Airport (LEIB)

Arrival

Time 2026-05-07 16:59
Airport Adolfo Suárez Madrid–Barajas Airport (LEMD)
Time Latitude Longitude Altitude Speed Heading
2026-05-07 15:49 38.87427 1.36582 15 ft 0 kts 13°
2026-05-07 16:00 38.87430 1.36586 15 ft 2 kts 30°
2026-05-07 16:00 38.87434 1.36608 15 ft 2 kts 94°
2026-05-07 16:00 38.87419 1.36620 15 ft 5 kts 146°
2026-05-07 16:00 38.87406 1.36671 15 ft 9 kts 84°
2026-05-07 16:01 38.87410 1.36773 15 ft 12 kts 107°
2026-05-07 16:01 38.87353 1.36830 15 ft 11 kts 152°
2026-05-07 16:01 38.87285 1.36839 15 ft 10 kts 222°
2026-05-07 16:01 38.87240 1.36753 14 ft 14 kts 241°
2026-05-07 16:02 38.87197 1.36645 14 ft 18 kts 242°
2026-05-07 16:02 38.87131 1.36484 14 ft 22 kts 242°
2026-05-07 16:02 38.87059 1.36310 14 ft 19 kts 242°
2026-05-07 16:02 38.86994 1.36153 14 ft 20 kts 242°
2026-05-07 16:03 38.86929 1.35997 14 ft 18 kts 242°
2026-05-07 16:03 38.86867 1.35844 14 ft 20 kts 242°
2026-05-07 16:03 38.86790 1.35774 14 ft 14 kts 159°
2026-05-07 16:03 38.86732 1.35865 11 ft 15 kts 116°
2026-05-07 16:04 38.86735 1.35985 11 ft 9 kts 62°
2026-05-07 16:04 38.86737 1.35990 11 ft 0 kts 62°
2026-05-07 16:04 38.86848 1.36259 11 ft 74 kts 61°
2026-05-07 16:04 38.87199 1.37108 14 ft 140 kts 62°
2026-05-07 16:05 38.87689 1.38323 528 ft 153 kts 63°
2026-05-07 16:05 38.88114 1.39558 1131 ft 162 kts 73°
2026-05-07 16:05 38.88385 1.41105 1348 ft 192 kts 79°
2026-05-07 16:05 38.88665 1.42864 1201 ft 208 kts 77°
2026-05-07 16:06 38.88988 1.44669 1010 ft 205 kts 76°
2026-05-07 16:06 38.89320 1.46435 1322 ft 203 kts 76°
2026-05-07 16:06 38.89664 1.48203 2098 ft 204 kts 76°
2026-05-07 16:06 38.90006 1.49946 2978 ft 205 kts 76°
2026-05-07 16:07 38.90358 1.51731 3743 ft 208 kts 75°
2026-05-07 16:07 38.90768 1.53536 4476 ft 213 kts 69°
2026-05-07 16:07 38.91589 1.55140 5147 ft 223 kts 48°
2026-05-07 16:07 38.92776 1.56583 5507 ft 247 kts 42°
2026-05-07 16:08 38.94113 1.58070 6094 ft 259 kts 42°
2026-05-07 16:08 38.95485 1.59606 6861 ft 265 kts 42°
2026-05-07 16:08 38.96882 1.61189 7677 ft 270 kts 43°
2026-05-07 16:08 38.98299 1.62809 8520 ft 276 kts 43°
2026-05-07 16:09 38.99770 1.64388 9353 ft 282 kts 36°
2026-05-07 16:09 39.01578 1.65418 10172 ft 289 kts 13°
2026-05-07 16:09 39.03593 1.65776 10988 ft 297 kts
2026-05-07 16:09 39.05730 1.65694 11522 ft 319 kts 350°
2026-05-07 16:10 39.07848 1.64589 12165 ft 341 kts 324°
2026-05-07 16:10 39.09490 1.62313 12877 ft 354 kts 299°
2026-05-07 16:10 39.10353 1.59375 13782 ft 353 kts 281°
2026-05-07 16:10 39.10732 1.56224 14495 ft 356 kts 273°
2026-05-07 16:11 39.10898 1.53030 15230 ft 359 kts 271°
2026-05-07 16:11 39.11027 1.49842 15955 ft 362 kts 271°
2026-05-07 16:11 39.11200 1.46597 16712 ft 365 kts 272°
2026-05-07 16:11 39.11436 1.43334 17465 ft 368 kts 274°
2026-05-07 16:12 39.11728 1.40047 18232 ft 370 kts 274°
2026-05-07 16:12 39.12055 1.36742 18885 ft 374 kts 275°
2026-05-07 16:12 39.12404 1.33397 19532 ft 378 kts 275°
2026-05-07 16:12 39.12760 1.30025 20180 ft 383 kts 275°
2026-05-07 16:13 39.13121 1.26600 20841 ft 387 kts 275°
2026-05-07 16:13 39.13481 1.23149 21505 ft 391 kts 274°
2026-05-07 16:13 39.13841 1.19657 22166 ft 395 kts 274°
2026-05-07 16:13 39.14198 1.16168 22831 ft 400 kts 274°
2026-05-07 16:14 39.14561 1.12597 23499 ft 404 kts 274°
2026-05-07 16:14 39.14926 1.08985 24080 ft 407 kts 273°
2026-05-07 16:14 39.15292 1.05357 24721 ft 409 kts 273°
2026-05-07 16:14 39.15659 1.01715 25336 ft 411 kts 272°
2026-05-07 16:15 39.16027 0.98047 25951 ft 413 kts 272°
2026-05-07 16:15 39.16394 0.94368 26541 ft 415 kts 272°
2026-05-07 16:15 39.16757 0.90708 27112 ft 418 kts 271°
2026-05-07 16:15 39.17127 0.86977 27700 ft 420 kts 271°
2026-05-07 16:16 39.17497 0.83221 28273 ft 423 kts 271°
2026-05-07 16:16 39.17868 0.79439 28772 ft 427 kts 271°
2026-05-07 16:16 39.18239 0.75653 28934 ft 420 kts 271°
2026-05-07 16:17 39.18967 0.68256 28935 ft 426 kts 271°
2026-05-07 16:17 39.19331 0.64395 28931 ft 441 kts 271°
2026-05-07 16:17 39.19706 0.60406 28936 ft 456 kts 271°
2026-05-07 16:18 39.20492 0.52219 28976 ft 466 kts 272°
2026-05-07 16:18 39.21114 0.48077 29314 ft 474 kts 280°
2026-05-07 16:18 39.22134 0.44005 29886 ft 478 kts 284°
2026-05-07 16:18 39.23261 0.39967 30298 ft 481 kts 285°
2026-05-07 16:19 39.24440 0.35891 30175 ft 489 kts 285°
2026-05-07 16:19 39.26899 0.27527 30111 ft 500 kts 286°
2026-05-07 16:20 39.29345 0.19179 30051 ft 499 kts 286°
2026-05-07 16:20 39.31773 0.10795 29901 ft 498 kts 286°
2026-05-07 16:21 39.34181 0.02408 29807 ft 496 kts 286°
2026-05-07 16:21 39.36568 -0.05913 29780 ft 485 kts 286°
2026-05-07 16:21 39.37716 -0.09921 29193 ft 479 kts 286°
2026-05-07 16:22 39.38875 -0.14000 28962 ft 484 kts 286°
2026-05-07 16:22 39.41205 -0.22231 28943 ft 487 kts 286°
2026-05-07 16:23 39.43531 -0.30442 28939 ft 486 kts 286°
2026-05-07 16:23 39.45853 -0.38655 28941 ft 485 kts 286°
2026-05-07 16:24 39.48175 -0.46790 28935 ft 486 kts 289°
2026-05-07 16:24 39.51318 -0.54604 28937 ft 490 kts 295°
2026-05-07 16:25 39.54712 -0.62293 28937 ft 491 kts 296°
2026-05-07 16:25 39.58131 -0.69964 28944 ft 491 kts 296°
2026-05-07 16:26 39.61510 -0.77602 28947 ft 492 kts 295°
2026-05-07 16:26 39.64902 -0.85321 28939 ft 492 kts 295°
2026-05-07 16:27 39.68289 -0.93054 28929 ft 492 kts 295°
2026-05-07 16:27 39.71663 -1.00779 28913 ft 491 kts 295°
2026-05-07 16:28 39.75030 -1.08520 28916 ft 491 kts 295°
2026-05-07 16:28 39.78388 -1.16234 28915 ft 490 kts 295°
2026-05-07 16:29 39.81729 -1.23894 28917 ft 490 kts 295°
2026-05-07 16:29 39.85080 -1.31627 28934 ft 490 kts 295°
2026-05-07 16:30 39.88418 -1.39367 28952 ft 489 kts 295°
2026-05-07 16:30 39.91750 -1.47098 28972 ft 489 kts 295°
2026-05-07 16:31 39.95057 -1.54792 28984 ft 489 kts 295°
2026-05-07 16:31 39.98328 -1.62409 28901 ft 464 kts 295°
2026-05-07 16:31 39.99883 -1.66034 28670 ft 452 kts 295°
2026-05-07 16:32 40.01393 -1.69564 28393 ft 441 kts 295°
2026-05-07 16:32 40.02866 -1.73016 28104 ft 430 kts 295°
2026-05-07 16:32 40.04311 -1.76406 27842 ft 425 kts 295°
2026-05-07 16:32 40.05745 -1.79781 27575 ft 425 kts 295°
2026-05-07 16:33 40.07161 -1.83114 27314 ft 424 kts 295°
2026-05-07 16:33 40.08589 -1.86475 27053 ft 422 kts 295°
2026-05-07 16:33 40.10012 -1.89829 26790 ft 421 kts 295°
2026-05-07 16:33 40.11429 -1.93171 26534 ft 419 kts 295°
2026-05-07 16:34 40.12839 -1.96500 26282 ft 422 kts 295°
2026-05-07 16:34 40.14291 -1.99942 26210 ft 442 kts 295°
2026-05-07 16:34 40.15803 -2.03530 26181 ft 459 kts 295°
2026-05-07 16:34 40.17373 -2.07243 26183 ft 471 kts 296°
2026-05-07 16:35 40.18955 -2.10974 25984 ft 467 kts 296°
2026-05-07 16:35 40.20511 -2.14650 25774 ft 468 kts 296°
2026-05-07 16:35 40.22073 -2.18346 25321 ft 460 kts 296°
2026-05-07 16:35 40.23610 -2.21987 24423 ft 443 kts 296°
2026-05-07 16:36 40.25046 -2.25392 23831 ft 422 kts 296°
2026-05-07 16:36 40.26440 -2.28707 23273 ft 412 kts 296°
2026-05-07 16:36 40.27813 -2.31982 22700 ft 407 kts 296°
2026-05-07 16:36 40.29165 -2.35212 22166 ft 402 kts 296°
2026-05-07 16:37 40.30053 -2.37330 21912 ft 396 kts 296°
2026-05-07 16:37 40.31355 -2.40439 21769 ft 382 kts 296°
2026-05-07 16:37 40.32610 -2.43438 21621 ft 369 kts 296°
2026-05-07 16:37 40.33823 -2.46340 21495 ft 356 kts 296°
2026-05-07 16:38 40.34994 -2.49144 21340 ft 345 kts 296°
2026-05-07 16:38 40.36123 -2.51850 21158 ft 335 kts 296°
2026-05-07 16:38 40.37418 -2.54401 20705 ft 337 kts 309°
2026-05-07 16:38 40.39190 -2.56427 20266 ft 339 kts 321°
2026-05-07 16:39 40.41100 -2.58235 19881 ft 337 kts 321°
2026-05-07 16:39 40.43002 -2.60021 19490 ft 334 kts 321°
2026-05-07 16:39 40.44858 -2.61776 19121 ft 332 kts 321°
2026-05-07 16:39 40.46728 -2.63552 18738 ft 330 kts 321°
2026-05-07 16:40 40.48583 -2.65320 18366 ft 328 kts 321°
2026-05-07 16:40 40.50434 -2.67087 17949 ft 326 kts 321°
2026-05-07 16:40 40.52264 -2.68837 17567 ft 323 kts 321°
2026-05-07 16:40 40.54072 -2.70567 17199 ft 320 kts 322°
2026-05-07 16:41 40.55865 -2.72285 16831 ft 317 kts 322°
2026-05-07 16:41 40.57620 -2.73968 16473 ft 316 kts 322°
2026-05-07 16:41 40.59386 -2.75662 16189 ft 311 kts 322°
2026-05-07 16:41 40.61128 -2.77332 16029 ft 301 kts 322°
2026-05-07 16:42 40.62774 -2.78912 15904 ft 291 kts 322°
2026-05-07 16:42 40.64387 -2.80464 15766 ft 282 kts 322°
2026-05-07 16:42 40.65822 -2.82191 15471 ft 277 kts 306°
2026-05-07 16:42 40.66888 -2.84269 15222 ft 272 kts 300°
2026-05-07 16:43 40.67864 -2.86410 14956 ft 271 kts 299°
2026-05-07 16:43 40.68834 -2.88544 14676 ft 271 kts 299°
2026-05-07 16:43 40.69807 -2.90673 14405 ft 270 kts 300°
2026-05-07 16:43 40.70769 -2.92769 14119 ft 270 kts 300°
2026-05-07 16:44 40.71740 -2.94884 13838 ft 269 kts 300°
2026-05-07 16:44 40.72711 -2.96995 13537 ft 268 kts 300°
2026-05-07 16:44 40.73673 -2.99087 13247 ft 267 kts 300°
2026-05-07 16:44 40.74632 -3.01173 12975 ft 265 kts 300°
2026-05-07 16:45 40.75586 -3.03250 12701 ft 264 kts 300°
2026-05-07 16:45 40.76539 -3.05324 12420 ft 263 kts 300°
2026-05-07 16:45 40.77487 -3.07389 12146 ft 262 kts 300°
2026-05-07 16:45 40.78428 -3.09440 11872 ft 261 kts 300°
2026-05-07 16:46 40.79354 -3.11460 11607 ft 260 kts 300°
2026-05-07 16:46 40.80291 -3.13505 11332 ft 259 kts 300°
2026-05-07 16:46 40.81220 -3.15537 11051 ft 258 kts 300°
2026-05-07 16:46 40.82147 -3.17561 10790 ft 257 kts 300°
2026-05-07 16:47 40.83070 -3.19580 10525 ft 256 kts 300°
2026-05-07 16:47 40.83988 -3.21589 10239 ft 255 kts 300°
2026-05-07 16:47 40.84901 -3.23588 9965 ft 254 kts 300°
2026-05-07 16:47 40.85814 -3.25585 9685 ft 254 kts 300°
2026-05-07 16:48 40.86729 -3.27586 9408 ft 254 kts 300°
2026-05-07 16:48 40.87631 -3.29563 9130 ft 253 kts 300°
2026-05-07 16:48 40.88539 -3.31553 8853 ft 252 kts 300°
2026-05-07 16:48 40.89444 -3.33537 8577 ft 252 kts 300°
2026-05-07 16:49 40.90345 -3.35516 8307 ft 251 kts 300°
2026-05-07 16:49 40.91203 -3.37513 8038 ft 250 kts 294°
2026-05-07 16:49 40.91731 -3.39703 7782 ft 248 kts 282°
2026-05-07 16:49 40.92090 -3.41923 7539 ft 247 kts 280°
2026-05-07 16:50 40.92414 -3.44132 7297 ft 246 kts 278°
2026-05-07 16:50 40.92417 -3.46379 7062 ft 244 kts 262°
2026-05-07 16:50 40.92147 -3.48598 6823 ft 243 kts 258°
2026-05-07 16:50 40.91700 -3.50700 6659 ft 234 kts 242°
2026-05-07 16:51 40.90637 -3.52247 6459 ft 226 kts 211°
2026-05-07 16:51 40.89257 -3.53175 6281 ft 219 kts 203°
2026-05-07 16:51 40.87884 -3.53971 6152 ft 210 kts 203°
2026-05-07 16:51 40.86560 -3.54602 5998 ft 200 kts 193°
2026-05-07 16:52 40.85193 -3.54951 6016 ft 200 kts 189°
2026-05-07 16:52 40.83818 -3.55249 6042 ft 200 kts 189°
2026-05-07 16:52 40.82442 -3.55612 6070 ft 201 kts 194°
2026-05-07 16:52 40.81069 -3.55960 6093 ft 201 kts 186°
2026-05-07 16:53 40.79674 -3.56034 6109 ft 201 kts 180°
2026-05-07 16:53 40.78273 -3.56039 6126 ft 201 kts 180°
2026-05-07 16:53 40.76872 -3.56028 6147 ft 201 kts 180°
2026-05-07 16:53 40.75494 -3.56025 6160 ft 200 kts 180°
2026-05-07 16:54 40.74133 -3.56030 6088 ft 190 kts 180°
2026-05-07 16:54 40.72842 -3.56042 5940 ft 182 kts 180°
2026-05-07 16:54 40.71592 -3.56045 5692 ft 179 kts 179°
2026-05-07 16:54 40.70347 -3.56033 5422 ft 176 kts 179°
2026-05-07 16:55 40.69150 -3.56025 5168 ft 168 kts 179°
2026-05-07 16:55 40.68012 -3.56019 4943 ft 158 kts 179°
2026-05-07 16:55 40.66950 -3.56012 4740 ft 147 kts 179°
2026-05-07 16:55 40.65948 -3.56007 4555 ft 143 kts 179°
2026-05-07 16:56 40.64950 -3.56002 4348 ft 143 kts 179°
2026-05-07 16:56 40.63951 -3.55991 4172 ft 144 kts 179°
2026-05-07 16:56 40.61955 -3.55994 3750 ft 143 kts 179°
2026-05-07 16:57 40.60965 -3.55990 3557 ft 142 kts 179°
2026-05-07 16:57 40.59983 -3.55963 3371 ft 143 kts 179°
2026-05-07 16:57 40.58983 -3.55959 3170 ft 145 kts 180°
2026-05-07 16:57 40.57975 -3.55975 2969 ft 145 kts 181°
2026-05-07 16:58 40.56968 -3.55967 2765 ft 145 kts 179°
2026-05-07 16:58 40.55959 -3.55940 2577 ft 145 kts 179°
2026-05-07 16:58 40.54960 -3.55953 2383 ft 143 kts 180°
2026-05-07 16:58 40.53972 -3.55949 2198 ft 141 kts 178°
2026-05-07 16:59 40.53000 -3.55937 2043 ft 140 kts 178°
2026-05-07 16:59 40.52051 -3.55945 1988 ft 137 kts 178°
2026-05-07 16:59 40.51134 -3.55929 1962 ft 116 kts 180°
2026-05-07 16:59 40.50646 -3.55927 1976 ft 46 kts 184°
2026-05-07 17:00 40.50399 -3.56014 1974 ft 29 kts 208°
2026-05-07 17:00 40.50267 -3.56110 1964 ft 14 kts 206°
2026-05-07 17:00 40.50207 -3.56194 1966 ft 10 kts 250°
2026-05-07 17:00 40.50166 -3.56253 1967 ft 10 kts 202°
2026-05-07 17:01 40.50079 -3.56258 1968 ft 16 kts 180°
2026-05-07 17:01 40.49951 -3.56255 1968 ft 19 kts 174°
2026-05-07 17:01 40.49820 -3.56249 1968 ft 15 kts 179°
2026-05-07 17:01 40.49770 -3.56271 1968 ft 6 kts 238°
2026-05-07 17:02 40.49767 -3.56320 1972 ft 6 kts 270°
2026-05-07 17:02 40.49767 -3.56355 1973 ft 0 kts 270°